OCN431 LEMH-EDDM

Flight info

Callsign OCN431
Flight time 1h 34m
Altitude 36000
Route ISTER UN851 LUNOR DCT NIVDA DCT OMEDA DCT RAPUR DCT TORTU DCT ERTEV DCT IBNAN DCT NOBMI DCT TAGIP DCT GUNGO DCT IVKAL T102 NINUR T101 BETOS BETOS1B
Aircraft A320/M-SDE2E3FGIJ1LORWXYZ/HB1

Departure

Time 2026-05-06 07:55
Airport Menorca Airport (LEMH)

Arrival

Time 2026-05-06 09:29
Airport Munich Airport (EDDM)
Time Latitude Longitude Altitude Speed Heading
2026-05-06 07:29 39.86466 4.22410 304 ft 0 kts 99°
2026-05-06 07:44 39.86467 4.22400 305 ft 4 kts 99°
2026-05-06 07:44 39.86471 4.22366 304 ft 4 kts 108°
2026-05-06 07:44 39.86484 4.22337 303 ft 4 kts 141°
2026-05-06 07:44 39.86504 4.22325 304 ft 2 kts 188°
2026-05-06 07:45 39.86510 4.22326 304 ft 0 kts 189°
2026-05-06 07:48 39.86508 4.22326 304 ft 3 kts 189°
2026-05-06 07:48 39.86453 4.22314 304 ft 10 kts 189°
2026-05-06 07:48 39.86389 4.22300 303 ft 9 kts 189°
2026-05-06 07:48 39.86330 4.22287 304 ft 9 kts 189°
2026-05-06 07:49 39.86272 4.22277 303 ft 8 kts 186°
2026-05-06 07:49 39.86218 4.22269 302 ft 8 kts 186°
2026-05-06 07:49 39.86185 4.22229 301 ft 7 kts 255°
2026-05-06 07:49 39.86187 4.22175 301 ft 6 kts 277°
2026-05-06 07:50 39.86187 4.22121 300 ft 10 kts 254°
2026-05-06 07:50 39.86127 4.22077 301 ft 10 kts 190°
2026-05-06 07:50 39.86060 4.22064 299 ft 9 kts 188°
2026-05-06 07:50 39.85966 4.22045 298 ft 19 kts 189°
2026-05-06 07:51 39.85826 4.22016 297 ft 21 kts 188°
2026-05-06 07:51 39.85673 4.21985 295 ft 24 kts 189°
2026-05-06 07:51 39.85504 4.21943 294 ft 26 kts 191°
2026-05-06 07:51 39.85322 4.21909 291 ft 26 kts 185°
2026-05-06 07:52 39.85167 4.21877 291 ft 15 kts 193°
2026-05-06 07:52 39.85129 4.21783 288 ft 10 kts 276°
2026-05-06 07:52 39.85129 4.21778 288 ft 0 kts 277°
2026-05-06 07:52 39.85130 4.21777 288 ft 1 kts 277°
2026-05-06 07:53 39.85138 4.21703 288 ft 10 kts 279°
2026-05-06 07:53 39.85169 4.21643 288 ft 7 kts 358°
2026-05-06 07:53 39.85206 4.21650 289 ft 0 kts
2026-05-06 07:54 39.85347 4.21679 294 ft 57 kts
2026-05-06 07:54 39.85967 4.21807 299 ft 120 kts
2026-05-06 07:55 39.86916 4.22037 590 ft 143 kts 12°
2026-05-06 07:55 39.87896 4.22261 1266 ft 143 kts
2026-05-06 07:55 39.88895 4.22479 1789 ft 152 kts
2026-05-06 07:55 39.90019 4.22715 2100 ft 175 kts
2026-05-06 07:56 39.91261 4.22981 2444 ft 193 kts
2026-05-06 07:56 39.92672 4.23261 2720 ft 216 kts
2026-05-06 07:56 39.94221 4.23572 3117 ft 236 kts 11°
2026-05-06 07:56 39.95737 4.24567 3549 ft 261 kts 45°
2026-05-06 07:57 39.96692 4.26650 4250 ft 274 kts 69°
2026-05-06 07:57 39.97214 4.29073 5076 ft 281 kts 80°
2026-05-06 07:57 39.97443 4.31631 5937 ft 286 kts 88°
2026-05-06 07:57 39.97278 4.34227 6751 ft 289 kts 109°
2026-05-06 07:58 39.96540 4.36676 7580 ft 292 kts 114°
2026-05-06 07:58 39.95941 4.39203 8404 ft 299 kts 101°
2026-05-06 07:58 39.95968 4.41930 9205 ft 307 kts 76°
2026-05-06 07:58 39.96816 4.44506 9998 ft 311 kts 61°
2026-05-06 07:59 39.97893 4.47057 10364 ft 333 kts 59°
2026-05-06 07:59 39.99085 4.49763 10712 ft 351 kts 59°
2026-05-06 07:59 40.00313 4.52518 11356 ft 359 kts 59°
2026-05-06 07:59 40.01575 4.55368 11822 ft 365 kts 59°
2026-05-06 08:00 40.02845 4.58256 11939 ft 367 kts 60°
2026-05-06 08:00 40.04104 4.61160 11973 ft 367 kts 60°
2026-05-06 08:00 40.05358 4.64074 11976 ft 368 kts 60°
2026-05-06 08:00 40.06611 4.66994 11978 ft 368 kts 60°
2026-05-06 08:01 40.07876 4.69906 11973 ft 368 kts 59°
2026-05-06 08:01 40.09156 4.72797 11972 ft 367 kts 59°
2026-05-06 08:01 40.10427 4.75650 11991 ft 369 kts 59°
2026-05-06 08:01 40.11725 4.78564 12676 ft 372 kts 59°
2026-05-06 08:02 40.13040 4.81522 13394 ft 378 kts 59°
2026-05-06 08:02 40.14373 4.84522 14038 ft 384 kts 59°
2026-05-06 08:02 40.15716 4.87556 14674 ft 388 kts 59°
2026-05-06 08:02 40.17075 4.90637 15298 ft 392 kts 59°
2026-05-06 08:03 40.18420 4.93696 15926 ft 395 kts 59°
2026-05-06 08:03 40.19799 4.96834 16544 ft 399 kts 59°
2026-05-06 08:03 40.21196 5.00013 17157 ft 403 kts 59°
2026-05-06 08:03 40.22599 5.03202 17781 ft 406 kts 59°
2026-05-06 08:04 40.24016 5.06429 18388 ft 410 kts 60°
2026-05-06 08:04 40.25443 5.09686 18915 ft 413 kts 60°
2026-05-06 08:04 40.26875 5.12972 19446 ft 417 kts 60°
2026-05-06 08:04 40.28300 5.16246 19967 ft 420 kts 60°
2026-05-06 08:05 40.29757 5.19584 20486 ft 423 kts 60°
2026-05-06 08:05 40.31232 5.22958 21012 ft 427 kts 60°
2026-05-06 08:05 40.32716 5.26353 21500 ft 430 kts 61°
2026-05-06 08:05 40.34193 5.29739 21995 ft 433 kts 61°
2026-05-06 08:06 40.35697 5.33187 22507 ft 436 kts 61°
2026-05-06 08:06 40.37210 5.36664 22947 ft 440 kts 61°
2026-05-06 08:06 40.38921 5.40026 23411 ft 444 kts 51°
2026-05-06 08:06 40.41004 5.43042 23810 ft 447 kts 45°
2026-05-06 08:07 40.43193 5.45970 24197 ft 450 kts 45°
2026-05-06 08:07 40.45397 5.48913 24583 ft 453 kts 45°
2026-05-06 08:07 40.47600 5.51858 24966 ft 456 kts 45°
2026-05-06 08:07 40.49831 5.54851 25336 ft 459 kts 45°
2026-05-06 08:08 40.52068 5.57861 25716 ft 461 kts 45°
2026-05-06 08:08 40.54318 5.60895 26079 ft 464 kts 45°
2026-05-06 08:08 40.56581 5.63953 26444 ft 467 kts 45°
2026-05-06 08:08 40.58831 5.66993 26797 ft 469 kts 45°
2026-05-06 08:09 40.61120 5.70083 27155 ft 472 kts 45°
2026-05-06 08:09 40.63422 5.73197 27510 ft 474 kts 45°
2026-05-06 08:09 40.65733 5.76330 27883 ft 476 kts 46°
2026-05-06 08:09 40.68051 5.79478 28240 ft 479 kts 46°
2026-05-06 08:10 40.70374 5.82633 28587 ft 481 kts 46°
2026-05-06 08:10 40.72680 5.85770 28923 ft 484 kts 46°
2026-05-06 08:10 40.75036 5.88980 29269 ft 486 kts 46°
2026-05-06 08:10 40.77403 5.92206 29594 ft 490 kts 46°
2026-05-06 08:11 40.79787 5.95451 29846 ft 493 kts 46°
2026-05-06 08:11 40.82181 5.98711 30124 ft 496 kts 46°
2026-05-06 08:11 40.84590 6.01999 30405 ft 498 kts 46°
2026-05-06 08:11 40.87010 6.05309 30674 ft 500 kts 46°
2026-05-06 08:12 40.89396 6.08575 30944 ft 502 kts 46°
2026-05-06 08:12 40.91818 6.11896 31229 ft 502 kts 46°
2026-05-06 08:12 40.94247 6.15228 31558 ft 501 kts 46°
2026-05-06 08:12 40.96661 6.18545 31991 ft 500 kts 46°
2026-05-06 08:13 40.99075 6.21867 32315 ft 500 kts 46°
2026-05-06 08:13 41.01490 6.25196 32643 ft 500 kts 46°
2026-05-06 08:13 41.03900 6.28523 33004 ft 499 kts 46°
2026-05-06 08:13 41.06311 6.31856 33371 ft 498 kts 46°
2026-05-06 08:14 41.08676 6.35126 33742 ft 497 kts 45°
2026-05-06 08:14 41.11072 6.38435 34091 ft 496 kts 45°
2026-05-06 08:14 41.13467 6.41743 34401 ft 495 kts 45°
2026-05-06 08:14 41.15854 6.45051 34702 ft 495 kts 45°
2026-05-06 08:15 41.18228 6.48351 34969 ft 495 kts 46°
2026-05-06 08:15 41.20609 6.51660 35245 ft 494 kts 46°
2026-05-06 08:15 41.22951 6.54918 35518 ft 493 kts 46°
2026-05-06 08:15 41.25296 6.58245 35784 ft 492 kts 47°
2026-05-06 08:16 41.27565 6.61677 35935 ft 492 kts 49°
2026-05-06 08:16 41.29742 6.65169 35967 ft 489 kts 51°
2026-05-06 08:16 41.33943 6.72184 35964 ft 486 kts 51°
2026-05-06 08:17 41.38196 6.79217 35963 ft 488 kts 50°
2026-05-06 08:17 41.42513 6.86201 35947 ft 487 kts 50°
2026-05-06 08:18 41.46833 6.93169 35966 ft 485 kts 50°
2026-05-06 08:18 41.51112 7.00101 35961 ft 485 kts 51°
2026-05-06 08:19 41.55399 7.07076 35966 ft 485 kts 51°
2026-05-06 08:19 41.59658 7.14028 35974 ft 486 kts 51°
2026-05-06 08:20 41.63952 7.21056 35958 ft 487 kts 51°
2026-05-06 08:20 41.68239 7.28098 35954 ft 488 kts 51°
2026-05-06 08:21 41.72498 7.35110 35953 ft 488 kts 51°
2026-05-06 08:21 41.76792 7.42180 35970 ft 488 kts 51°
2026-05-06 08:22 41.81080 7.49259 35957 ft 489 kts 51°
2026-05-06 08:22 41.85344 7.56321 35955 ft 489 kts 51°
2026-05-06 08:23 41.89626 7.63426 35944 ft 489 kts 51°
2026-05-06 08:23 41.93905 7.70541 35976 ft 488 kts 51°
2026-05-06 08:24 41.98149 7.77612 35969 ft 488 kts 51°
2026-05-06 08:24 42.01694 7.83533 35956 ft 488 kts 51°
2026-05-06 08:25 42.05955 7.90685 35954 ft 488 kts 51°
2026-05-06 08:25 42.10185 7.97787 35921 ft 488 kts 52°
2026-05-06 08:26 42.14442 8.04942 35959 ft 488 kts 52°
2026-05-06 08:26 42.18685 8.12096 35949 ft 488 kts 52°
2026-05-06 08:27 42.22900 8.19218 35949 ft 488 kts 52°
2026-05-06 08:27 42.27129 8.26401 35940 ft 488 kts 52°
2026-05-06 08:28 42.31554 8.33330 35948 ft 487 kts 41°
2026-05-06 08:28 42.37128 8.38449 35923 ft 483 kts 23°
2026-05-06 08:29 42.43265 8.41931 35922 ft 481 kts 19°
2026-05-06 08:29 42.49478 8.45384 35922 ft 481 kts 19°
2026-05-06 08:30 42.55648 8.48814 35920 ft 481 kts 19°
2026-05-06 08:30 42.61856 8.52274 35920 ft 481 kts 20°
2026-05-06 08:31 42.68043 8.55736 35921 ft 481 kts 20°
2026-05-06 08:31 42.74196 8.59181 35927 ft 481 kts 19°
2026-05-06 08:32 42.80408 8.62669 35914 ft 482 kts 19°
2026-05-06 08:32 42.86614 8.66162 35908 ft 482 kts 19°
2026-05-06 08:33 42.92782 8.69641 35925 ft 483 kts 19°
2026-05-06 08:33 42.99001 8.73154 35882 ft 483 kts 20°
2026-05-06 08:34 43.08340 8.78428 35900 ft 483 kts 20°
2026-05-06 08:35 43.14564 8.81962 35908 ft 484 kts 20°
2026-05-06 08:35 43.20795 8.85509 35902 ft 484 kts 20°
2026-05-06 08:36 43.26991 8.89053 35900 ft 485 kts 20°
2026-05-06 08:36 43.33221 8.92623 35906 ft 485 kts 20°
2026-05-06 08:37 43.39627 8.95370 35897 ft 478 kts
2026-05-06 08:37 43.46215 8.95831 35888 ft 472 kts 354°
2026-05-06 08:38 43.52796 8.95824 35897 ft 473 kts 354°
2026-05-06 08:38 43.59315 8.96837 35883 ft 485 kts 17°
2026-05-06 08:39 43.65641 9.00120 35882 ft 483 kts 11°
2026-05-06 08:39 43.72156 9.02573 35885 ft 485 kts 12°
2026-05-06 08:39 43.75286 9.04229 35874 ft 490 kts 25°
2026-05-06 08:40 43.78319 9.06394 35882 ft 491 kts 25°
2026-05-06 08:40 43.84340 9.10880 35859 ft 492 kts 26°
2026-05-06 08:41 43.90357 9.15431 35878 ft 493 kts 26°
2026-05-06 08:41 43.96401 9.19964 35873 ft 493 kts 26°
2026-05-06 08:42 44.02473 9.24479 35880 ft 494 kts 26°
2026-05-06 08:42 44.08515 9.28977 35912 ft 494 kts 26°
2026-05-06 08:43 44.14557 9.33494 35898 ft 495 kts 26°
2026-05-06 08:43 44.20627 9.38055 35891 ft 495 kts 26°
2026-05-06 08:44 44.26703 9.42635 35903 ft 496 kts 26°
2026-05-06 08:44 44.32746 9.47197 35870 ft 497 kts 26°
2026-05-06 08:45 44.38838 9.51810 35870 ft 497 kts 26°
2026-05-06 08:45 44.44930 9.56432 35875 ft 498 kts 26°
2026-05-06 08:46 44.51003 9.61045 35879 ft 498 kts 26°
2026-05-06 08:46 44.57096 9.65685 35886 ft 498 kts 26°
2026-05-06 08:47 44.63206 9.70349 35899 ft 498 kts 26°
2026-05-06 08:47 44.69303 9.75014 35892 ft 498 kts 26°
2026-05-06 08:48 44.75395 9.79692 35880 ft 498 kts 26°
2026-05-06 08:48 44.81444 9.84347 35885 ft 498 kts 26°
2026-05-06 08:49 44.87537 9.89037 35877 ft 497 kts 26°
2026-05-06 08:49 44.93610 9.93728 35875 ft 497 kts 26°
2026-05-06 08:50 44.99679 9.98432 35859 ft 496 kts 26°
2026-05-06 08:50 45.05696 10.03118 35905 ft 495 kts 26°
2026-05-06 08:51 45.11748 10.07835 35911 ft 495 kts 26°
2026-05-06 08:51 45.17770 10.12578 35915 ft 495 kts 26°
2026-05-06 08:52 45.23734 10.17377 35907 ft 495 kts 27°
2026-05-06 08:52 45.29724 10.22213 35901 ft 495 kts 27°
2026-05-06 08:53 45.35728 10.27044 35905 ft 495 kts 27°
2026-05-06 08:53 45.41745 10.31888 35914 ft 496 kts 27°
2026-05-06 08:54 45.47728 10.36727 35909 ft 497 kts 27°
2026-05-06 08:54 45.53722 10.41590 35913 ft 497 kts 27°
2026-05-06 08:55 45.59752 10.46489 35915 ft 498 kts 27°
2026-05-06 08:55 45.65833 10.51270 35924 ft 496 kts 21°
2026-05-06 08:56 45.72149 10.55313 35939 ft 495 kts 20°
2026-05-06 08:56 45.78406 10.59329 35938 ft 495 kts 21°
2026-05-06 08:57 45.84713 10.63399 35936 ft 496 kts 21°
2026-05-06 08:57 45.90964 10.67446 35961 ft 495 kts 21°
2026-05-06 08:58 45.97204 10.71679 35957 ft 495 kts 24°
2026-05-06 08:58 46.03279 10.76391 35923 ft 495 kts 26°
2026-05-06 08:59 46.09302 10.81234 35956 ft 494 kts 26°
2026-05-06 08:59 46.15304 10.85944 35978 ft 492 kts 25°
2026-05-06 09:00 46.21348 10.90582 35978 ft 491 kts 25°
2026-05-06 09:00 46.27337 10.95196 35981 ft 489 kts 25°
2026-05-06 09:01 46.33341 10.99859 35983 ft 489 kts 25°
2026-05-06 09:01 46.39449 11.04160 35980 ft 484 kts 14°
2026-05-06 09:02 46.45977 11.06017 35955 ft 472 kts 356°
2026-05-06 09:02 46.51380 11.05778 35951 ft 466 kts 351°
2026-05-06 09:02 46.55684 11.05456 35765 ft 466 kts 351°
2026-05-06 09:03 46.58928 11.05219 35205 ft 464 kts 350°
2026-05-06 09:03 46.61066 11.05066 34844 ft 463 kts 350°
2026-05-06 09:03 46.64285 11.04841 34316 ft 461 kts 349°
2026-05-06 09:03 46.67489 11.04615 33811 ft 459 kts 349°
2026-05-06 09:04 46.70677 11.04389 33228 ft 457 kts 350°
2026-05-06 09:04 46.73841 11.04164 32792 ft 453 kts 350°
2026-05-06 09:04 46.76988 11.03938 32296 ft 450 kts 350°
2026-05-06 09:04 46.80074 11.03693 31809 ft 447 kts 348°
2026-05-06 09:05 46.83161 11.03279 31292 ft 443 kts 346°
2026-05-06 09:05 46.86205 11.02714 30817 ft 438 kts 345°
2026-05-06 09:05 46.89213 11.02073 30378 ft 434 kts 344°
2026-05-06 09:05 46.92198 11.01413 29865 ft 431 kts 345°
2026-05-06 09:06 46.95202 11.01073 29333 ft 435 kts 355°
2026-05-06 09:06 46.98228 11.01391 28818 ft 436 kts
2026-05-06 09:06 47.01208 11.01832 28358 ft 433 kts
2026-05-06 09:06 47.04202 11.02296 27917 ft 430 kts
2026-05-06 09:07 47.07169 11.02766 27413 ft 425 kts
2026-05-06 09:07 47.10105 11.03231 27026 ft 420 kts
2026-05-06 09:07 47.12967 11.03680 26549 ft 417 kts
2026-05-06 09:07 47.15839 11.04121 26075 ft 414 kts
2026-05-06 09:08 47.18701 11.04554 25666 ft 410 kts
2026-05-06 09:08 47.21535 11.04982 25233 ft 407 kts
2026-05-06 09:08 47.24349 11.05406 24816 ft 405 kts
2026-05-06 09:08 47.27139 11.05828 24406 ft 400 kts
2026-05-06 09:09 47.29905 11.06249 23939 ft 398 kts
2026-05-06 09:09 47.32664 11.06669 23509 ft 397 kts
2026-05-06 09:09 47.35414 11.07088 23093 ft 395 kts
2026-05-06 09:09 47.38149 11.07507 22579 ft 393 kts
2026-05-06 09:10 47.40830 11.07923 22194 ft 390 kts
2026-05-06 09:10 47.43534 11.08342 21813 ft 387 kts
2026-05-06 09:10 47.46218 11.08754 21394 ft 384 kts
2026-05-06 09:10 47.48874 11.09159 20971 ft 381 kts
2026-05-06 09:11 47.51460 11.09557 20603 ft 377 kts
2026-05-06 09:11 47.54053 11.10051 20227 ft 375 kts
2026-05-06 09:11 47.56574 11.11020 19878 ft 373 kts 18°
2026-05-06 09:11 47.58970 11.12478 19527 ft 371 kts 26°
2026-05-06 09:12 47.61222 11.14340 19125 ft 368 kts 31°
2026-05-06 09:12 47.63436 11.16254 18850 ft 366 kts 31°
2026-05-06 09:12 47.65641 11.18157 18800 ft 366 kts 31°
2026-05-06 09:12 47.67816 11.20041 18829 ft 366 kts 31°
2026-05-06 09:13 47.70016 11.21948 18815 ft 365 kts 31°
2026-05-06 09:13 47.72209 11.23855 18812 ft 365 kts 31°
2026-05-06 09:13 47.74476 11.25552 18819 ft 365 kts 21°
2026-05-06 09:13 47.76862 11.26879 18818 ft 365 kts 20°
2026-05-06 09:14 47.79254 11.28206 18814 ft 365 kts 20°
2026-05-06 09:14 47.81639 11.29531 18823 ft 365 kts 20°
2026-05-06 09:14 47.84013 11.30851 18425 ft 370 kts 20°
2026-05-06 09:14 47.86424 11.32190 17789 ft 368 kts 20°
2026-05-06 09:15 47.88850 11.33300 17128 ft 361 kts
2026-05-06 09:15 47.91316 11.33682 16478 ft 354 kts
2026-05-06 09:15 47.93765 11.33878 15839 ft 349 kts
2026-05-06 09:15 47.96179 11.34078 15207 ft 345 kts
2026-05-06 09:16 47.98564 11.34282 14596 ft 341 kts
2026-05-06 09:16 48.00926 11.34488 14002 ft 337 kts
2026-05-06 09:16 48.03212 11.34899 13385 ft 333 kts 15°
2026-05-06 09:16 48.05316 11.36253 12922 ft 325 kts 34°
2026-05-06 09:17 48.07030 11.38417 12827 ft 321 kts 51°
2026-05-06 09:17 48.08263 11.41173 12833 ft 318 kts 68°
2026-05-06 09:17 48.09053 11.44209 12844 ft 316 kts 73°
2026-05-06 09:17 48.09805 11.47289 12466 ft 314 kts 73°
2026-05-06 09:18 48.10545 11.50355 12132 ft 312 kts 73°
2026-05-06 09:18 48.11279 11.53403 11776 ft 310 kts 73°
2026-05-06 09:18 48.12007 11.56441 11437 ft 308 kts 73°
2026-05-06 09:18 48.12727 11.59450 11069 ft 307 kts 73°
2026-05-06 09:19 48.13449 11.62460 10691 ft 307 kts 73°
2026-05-06 09:19 48.14170 11.65466 10346 ft 305 kts 73°
2026-05-06 09:19 48.14892 11.68462 10024 ft 304 kts 72°
2026-05-06 09:19 48.15605 11.71430 9677 ft 302 kts 72°
2026-05-06 09:20 48.16312 11.74381 9321 ft 300 kts 73°
2026-05-06 09:20 48.17012 11.77308 8972 ft 297 kts 73°
2026-05-06 09:20 48.17704 11.80215 8623 ft 294 kts 72°
2026-05-06 09:20 48.18563 11.82996 8269 ft 294 kts 61°
2026-05-06 09:21 48.19586 11.85592 7928 ft 291 kts 61°
2026-05-06 09:21 48.20609 11.88198 7571 ft 289 kts 62°
2026-05-06 09:21 48.21619 11.90784 7219 ft 286 kts 62°
2026-05-06 09:21 48.22619 11.93347 6870 ft 283 kts 62°
2026-05-06 09:22 48.23609 11.95891 6509 ft 280 kts 62°
2026-05-06 09:22 48.24589 11.98410 6154 ft 278 kts 62°
2026-05-06 09:22 48.25564 12.00926 5784 ft 275 kts 61°
2026-05-06 09:22 48.26515 12.03376 5536 ft 272 kts 61°
2026-05-06 09:23 48.27469 12.05830 5529 ft 273 kts 61°
2026-05-06 09:23 48.28425 12.08290 5526 ft 269 kts 61°
2026-05-06 09:23 48.29490 12.10469 5520 ft 253 kts 42°
2026-05-06 09:23 48.30981 12.11685 5523 ft 238 kts 14°
2026-05-06 09:24 48.32606 12.11782 5527 ft 231 kts 348°
2026-05-06 09:24 48.34034 12.10867 5532 ft 217 kts 322°
2026-05-06 09:24 48.35155 12.09400 5531 ft 212 kts 316°
2026-05-06 09:24 48.36018 12.07693 5546 ft 202 kts 292°
2026-05-06 09:25 48.36347 12.05746 5530 ft 184 kts 270°
2026-05-06 09:25 48.36254 12.03926 5520 ft 167 kts 261°
2026-05-06 09:25 48.36124 12.02239 5434 ft 159 kts 261°
2026-05-06 09:25 48.35998 12.00597 5153 ft 158 kts 261°
2026-05-06 09:26 48.35876 11.98976 4906 ft 157 kts 262°
2026-05-06 09:26 48.35758 11.97402 4767 ft 150 kts 261°
2026-05-06 09:26 48.35638 11.95806 4409 ft 156 kts 262°
2026-05-06 09:26 48.35516 11.94165 4028 ft 162 kts 262°
2026-05-06 09:27 48.35383 11.92396 3471 ft 177 kts 263°
2026-05-06 09:27 48.35243 11.90555 3065 ft 177 kts 263°
2026-05-06 09:27 48.35101 11.88689 2581 ft 180 kts 263°
2026-05-06 09:27 48.34966 11.86890 2366 ft 168 kts 263°
2026-05-06 09:28 48.34840 11.85227 2152 ft 154 kts 264°
2026-05-06 09:28 48.34724 11.83693 1949 ft 147 kts 264°
2026-05-06 09:28 48.34608 11.82173 1747 ft 145 kts 264°
2026-05-06 09:28 48.34492 11.80649 1558 ft 144 kts 264°
2026-05-06 09:29 48.34384 11.79233 1485 ft 121 kts 263°
2026-05-06 09:29 48.34317 11.78241 1485 ft 71 kts 264°
2026-05-06 09:29 48.34278 11.77707 1472 ft 49 kts 263°
2026-05-06 09:29 48.34256 11.77276 1485 ft 32 kts 283°
2026-05-06 09:30 48.34341 11.76975 1480 ft 30 kts 294°
2026-05-06 09:30 48.34388 11.76812 1480 ft 15 kts 293°
2026-05-06 09:30 48.34451 11.76703 1475 ft 14 kts 346°
2026-05-06 09:30 48.34552 11.76696 1485 ft 15 kts 13°
2026-05-06 09:31 48.34645 11.76670 1475 ft 14 kts 353°
2026-05-06 09:31 48.34736 11.76684 1485 ft 14 kts 42°
2026-05-06 09:31 48.34760 11.76824 1485 ft 15 kts 82°
2026-05-06 09:31 48.34772 11.76984 1485 ft 16 kts 84°
2026-05-06 09:32 48.34785 11.77162 1479 ft 18 kts 84°
2026-05-06 09:32 48.34794 11.77340 1480 ft 14 kts 97°
2026-05-06 09:32 48.34723 11.77410 1479 ft 13 kts 178°
2026-05-06 09:32 48.34641 11.77450 1479 ft 12 kts 122°
2026-05-06 09:33 48.34639 11.77573 1480 ft 12 kts 84°
2026-05-06 09:33 48.34650 11.77694 1474 ft 11 kts 82°
2026-05-06 09:33 48.34659 11.77810 1485 ft 11 kts 84°
2026-05-06 09:33 48.34666 11.77915 1485 ft 9 kts 85°
2026-05-06 09:34 48.34671 11.78003 1485 ft 8 kts 85°
2026-05-06 09:34 48.34683 11.78147 1474 ft 21 kts 82°
2026-05-06 09:34 48.34699 11.78368 1477 ft 22 kts 84°
2026-05-06 09:34 48.34717 11.78603 1485 ft 23 kts 83°
2026-05-06 09:35 48.34730 11.78764 1483 ft 12 kts 83°
2026-05-06 09:35 48.34739 11.78883 1477 ft 10 kts 83°
2026-05-06 09:35 48.34747 11.78980 1485 ft 7 kts 83°
2026-05-06 09:35 48.34752 11.79041 1481 ft 5 kts 83°
2026-05-06 09:36 48.34755 11.79084 1477 ft 4 kts 83°
2026-05-06 09:36 48.34758 11.79115 1485 ft 2 kts 83°
2026-05-06 09:36 48.34759 11.79136 1485 ft 2 kts 83°
2026-05-06 09:36 48.34760 11.79147 1485 ft 1 kts 83°
2026-05-06 09:37 48.34763 11.79187 1485 ft 5 kts 83°
2026-05-06 09:37 48.34767 11.79229 1485 ft 4 kts 83°
2026-05-06 09:37 48.34776 11.79341 1479 ft 16 kts 83°
2026-05-06 09:37 48.34787 11.79488 1485 ft 13 kts 82°
2026-05-06 09:38 48.34850 11.79555 1480 ft 13 kts 359°
2026-05-06 09:38 48.34937 11.79542 1482 ft 12 kts 353°
2026-05-06 09:38 48.35007 11.79530 1483 ft 9 kts 354°
2026-05-06 09:38 48.35057 11.79519 1485 ft 5 kts 338°
2026-05-06 09:39 48.35069 11.79486 1481 ft 3 kts 279°
2026-05-06 09:39 48.35068 11.79436 1485 ft 5 kts 265°
2026-05-06 09:39 48.35064 11.79387 1481 ft 4 kts 263°
2026-05-06 09:39 48.35063 11.79368 1485 ft 0 kts 263°